Regional Weather Roundup
Issued by NWS

Home | Current Version | Previous Version | Text Only | Print | Product List | Glossary On
Versions: 1 2 3 4 5 6 7 8 9 10 11 12 13 14 15 16 17 18 19 20 21 22 23 24 25 26 27 28 29 30 31 32 33 34 35 36 37 38 39 40 41 42 43 44 45 46 47 48 49 50
000
ASUS45 KABQ 310910
RWRNM
WEATHER ROUNDUP FOR NEW MEXICO
NATIONAL WEATHER SERVICE ALBUQUERQUE NM
300 AM MDT SUN AUG 31 2014

NOTE: "FAIR" MEANS FEW OR NO CLOUDS BELOW 12,000 FEET AGL WITH NO
       SIGNIFICANT WEATHER OR OBSTRUCTIONS TO VISION.

      THIS PRODUCT IS RELEASED AS TWO VERSIONS.  ONE VERSION NEAR
      THE TOP OF THE HOUR CONTAINING PRELIMINARY DATA FROM ALBUQUERQUE
      AND OTHER STATIONS.  A FINAL VERSION WITH ADDITIONAL DATA IS
      ISSUED ABOUT 10 MINUTES AFTER THE HOUR.

NMZ501-503-504-510>518-311000-
NORTHWEST PLATEAU/NORTHCENTRAL MOUNTAINS

CITY           SKY/WX    TMP DP  RH WIND       PRES   REMARKS
FARMINGTON     CLEAR     58  39  49 NE7       30.03S
LOS ALAMOS     CLEAR     65  38  36 S9        30.17S
SANTA FE       CLEAR     60  41  49 W3        30.11S
ANGEL FIRE     FAIR      39  35  84 CALM      30.26F

$$
NMZ402-403-502-505>509-311000-
WESTCENTRAL MOUNTAINS/SOUTHWEST MOUNTAINS

CITY           SKY/WX    TMP DP  RH WIND       PRES   REMARKS
GALLUP         CLEAR     53  26  35 NE5       30.16S
SILVER CITY    CLEAR     64  39  39 N9        30.13R

$$
NMZ407-409-411-412-311000-
SOUTHERN DESERTS

CITY           SKY/WX    TMP DP  RH WIND       PRES   REMARKS
LORDSBURG      FAIR      68  43  40 E3        30.03R
DEMING         CLEAR     70  47  43 W5        30.03R
LAS CRUCES     CLEAR     73  40  30 W7        30.04S
HOLLOMAN AFB   CLEAR     74  42  31 S7        29.99S
ALAMOGORDO     CLEAR     70  41  35 S9        30.01S
T OR C         CLEAR     72  43  35 W5        30.06R

$$
NMZ519>523-311000-
CENTRAL VALLEYS/CENTRAL HIGHLANDS

CITY           SKY/WX    TMP DP  RH WIND       PRES   REMARKS
ALBUQUERQUE    PTCLDY    70  42  36 SE9       30.07R
DOUBLE EAGLE   CLEAR     65  37  35 W10       30.09S
MORIARTY ARPT  FAIR      58  43  57 S7        30.13R
CLINES CORNERS PTCLDY    63  40  42 SW17      30.16F
BELEN          FAIR      68  41  37 S8        30.07R
SOCORRO        FAIR      65  46  50 SW5       30.05S

$$
NMZ524>526-539-540-311000-
SOUTHCENTRAL MOUNTAINS

CITY           SKY/WX    TMP DP  RH WIND       PRES   REMARKS
RUIDOSO        NOT AVBL

$$
NMZ527>531-311000-
NORTHEAST HIGHLANDS/NORTHEAST PLAINS

CITY           SKY/WX    TMP DP  RH WIND       PRES   REMARKS
LAS VEGAS      PTCLDY    59  39  47 S12       30.14F
RATON          CLEAR     56  41  57 NE6       30.07F
CLAYTON        NOT AVBL

$$
NMZ532>537-311000-
EASTCENTRAL PLAINS

CITY           SKY/WX    TMP DP  RH WIND       PRES   REMARKS
TUCUMCARI      CLEAR     76  46  34 S23G30    29.96F
CANNON AFB     CLEAR     70  53  55 S8        30.04S
CLOVIS AIRPORT   N/A     64  48  55 S7        30.06S

$$
NMZ028-029-538-311000-
SOUTHEAST PLAINS

CITY           SKY/WX    TMP DP  RH WIND       PRES   REMARKS
ROSWELL        CLEAR     69  50  50 S7        29.99S
CARLSBAD       CLEAR     76  56  49 S8        29.97F
HOBBS          CLEAR     75  59  57 S13       30.02S


$$



USA.gov is the U.S. government's official web portal to all federal, state and local government web resources and services.